{"data":{"norad_id":58106,"intl_designator":"2023-161K","name":"STARLINK-30612","alt_names":[],"object_type":"PAYLOAD","status":"ACTIVE","operator":null,"country":"US","launch_date":"2023-10-21","launch_site_code":"AFWTR","launch_vehicle":null,"mission":null,"orbit_class":"UNKNOWN","rcs_meters":null,"size_class":null,"mass_kg":null,"dimensions":null,"purposes":["comms"],"wikipedia_slug":null,"has_3d_model":false,"image_url":null,"decayed_at":null,"tle_current":{"epoch":"2026-05-24T17:52:52.134240Z","epoch_age_seconds":91025,"freshness":"FRESH","line1":"1 58106U 23161K   26144.74504785 -.00008465  00000+0 -23946-3 0  9991","line2":"2 58106  53.1601 158.7898 0000876 102.8117 257.2983 15.34428474146240","mean_motion":15.34428474,"eccentricity":8.76e-5,"inclination_deg":53.1601,"raan_deg":158.7898,"arg_perigee_deg":102.8117,"mean_anomaly_deg":257.2983,"bstar":-0.00023946,"rev_number":14624,"period_min":93.846016572292,"perigee_km":462.01936059571,"apogee_km":463.21786097872,"semimajor_km":6840.7556107872,"source":"CELESTRAK","updated_at":"2026-05-25T13:38:18.527847Z"}}}